Terminal Aerodrome Forecast
Issued by NWS

Home | Current Version | Previous Version | Text Only | Print | Product List | Glossary On
Versions: 1 2 3 4 5 6 7 8 9 10 11 12 13 14 15 16 17 18 19 20 21 22 23 24 25 26 27 28 29 30 31 32 33 34 35 36 37 38 39 40 41 42 43 44 45 46 47 48 49 50
585
FTUS44 KBMX 291524 AAA
TAFASN
TAF AMD
KASN 291524Z 2915/3012 09003KT P6SM SCT015 SCT250
     FM291600 18005KT P6SM BKN050
     FM300500 11003KT P6SM BKN250=

USA.gov is the U.S. government's official web portal to all federal, state and local government web resources and services.